TimeCDT,TemperatureF,Dew PointF,Humidity,Sea Level PressureIn,VisibilityMPH,Wind Direction,Wind SpeedMPH,Gust SpeedMPH,PrecipitationIn,Events,Conditions,WindDirDegrees,DateUTC
12:15 AM,46.9,39.2,74,29.76,3.0,East,24.2,33.4,0.09,Rain,Rain,100,2012-04-28 05:15:00
12:35 AM,45.7,40.8,83,29.77,2.5,East,19.6,25.3,0.18,Rain,Light Rain,100,2012-04-28 05:35:00
12:55 AM,45.9,40.5,81,29.79,7.0,ESE,23.0,29.9,0.19,Rain,Light Rain,120,2012-04-28 05:55:00
1:15 AM,45.1,41.0,85,29.78,5.0,ESE,23.0,27.6,0.05,Rain,Rain,110,2012-04-28 06:15:00
1:35 AM,44.8,41.0,87,29.78,5.0,ESE,23.0,27.6,0.07,Rain,Rain,110,2012-04-28 06:35:00
1:55 AM,44.8,41.4,88,29.77,7.0,ESE,23.0,27.6,0.09,Rain,Light Rain,110,2012-04-28 06:55:00
2:15 AM,45.3,41.4,86,29.77,7.0,ESE,21.9,26.5,N/A,,Light Drizzle,110,2012-04-28 07:15:00
2:35 AM,45.9,40.8,83,29.77,10.0,ESE,25.3,32.2,N/A,Rain,Light Rain,110,2012-04-28 07:35:00
3:15 AM,45.7,40.3,81,29.77,10.0,ESE,18.4,27.6,N/A,,Overcast,110,2012-04-28 08:15:00
3:35 AM,45.7,40.5,82,29.77,10.0,ESE,18.4,24.2,N/A,,Overcast,110,2012-04-28 08:35:00
3:55 AM,45.5,41.0,84,29.79,7.0,ESE,18.4,24.2,N/A,,Overcast,110,2012-04-28 08:55:00
4:15 AM,45.5,41.0,84,29.79,7.0,ESE,16.1,20.7,N/A,Rain,Light Rain,110,2012-04-28 09:15:00
4:35 AM,45.5,41.4,85,29.80,3.0,ESE,13.8,-,N/A,,Overcast,110,2012-04-28 09:35:00
4:55 AM,45.1,41.7,88,29.80,5.0,East,13.8,-,N/A,,Overcast,100,2012-04-28 09:55:00
5:15 AM,45.5,41.5,86,29.81,5.0,ESE,13.8,-,N/A,,Overcast,110,2012-04-28 10:15:00
5:55 AM,45.1,41.5,87,29.82,4.0,ESE,13.8,-,N/A,,Overcast,110,2012-04-28 10:55:00
6:15 AM,45.0,41.5,88,29.82,5.0,East,13.8,-,N/A,,Overcast,100,2012-04-28 11:15:00
6:35 AM,45.0,41.5,88,29.84,5.0,East,12.7,-,N/A,,Overcast,100,2012-04-28 11:35:00
6:55 AM,44.8,41.7,89,29.85,5.0,East,10.4,-,N/A,,Overcast,80,2012-04-28 11:55:00
7:15 AM,44.8,41.2,87,29.86,7.0,East,9.2,-,N/A,,Overcast,90,2012-04-28 12:15:00
7:55 AM,45.5,41.2,85,29.89,7.0,East,11.5,-,N/A,,Overcast,100,2012-04-28 12:55:00
8:35 AM,45.9,41.5,85,29.92,7.0,ESE,9.2,-,N/A,,Overcast,110,2012-04-28 13:35:00
8:55 AM,46.4,42.1,85,29.92,7.0,East,6.9,-,N/A,,Overcast,80,2012-04-28 13:55:00
9:15 AM,46.6,41.9,84,29.92,7.0,East,9.2,-,N/A,,Overcast,90,2012-04-28 14:15:00
9:35 AM,46.8,42.3,84,29.93,7.0,East,6.9,-,N/A,,Overcast,90,2012-04-28 14:35:00
9:55 AM,47.3,42.4,83,29.93,7.0,East,5.8,-,N/A,,Overcast,80,2012-04-28 14:55:00
10:15 AM,47.5,42.6,83,29.93,7.0,East,8.1,-,N/A,,Overcast,90,2012-04-28 15:15:00
10:35 AM,48.4,43.3,83,29.95,5.0,ENE,5.8,-,N/A,,Haze,70,2012-04-28 15:35:00
10:55 AM,49.1,43.9,82,29.96,7.0,ESE,6.9,-,N/A,,Overcast,110,2012-04-28 15:55:00
11:15 AM,48.7,43.5,82,29.98,7.0,SE,3.5,-,N/A,,Overcast,130,2012-04-28 16:15:00
11:35 AM,49.3,43.9,82,29.98,7.0,ENE,4.6,-,N/A,,Overcast,70,2012-04-28 16:35:00
11:55 AM,50.4,44.1,79,29.97,7.0,ENE,3.5,-,N/A,,Overcast,60,2012-04-28 16:55:00
12:15 PM,50.9,44.6,79,29.97,7.0,NE,3.5,-,N/A,,Overcast,50,2012-04-28 17:15:00
12:35 PM,51.3,45.0,79,29.97,7.0,North,4.6,-,N/A,,Overcast,10,2012-04-28 17:35:00
12:55 PM,51.8,45.1,78,29.97,7.0,NNE,5.8,-,N/A,,Overcast,20,2012-04-28 17:55:00
1:15 PM,52.9,46.2,78,29.97,7.0,North,6.9,-,N/A,,Overcast,10,2012-04-28 18:15:00
1:35 PM,52.9,45.7,77,29.99,7.0,NNE,6.9,-,N/A,,Overcast,20,2012-04-28 18:35:00
1:55 PM,53.1,46.2,78,29.99,7.0,NNE,6.9,-,N/A,,Overcast,20,2012-04-28 18:55:00
2:15 PM,52.9,46.2,78,30.00,7.0,North,6.9,-,N/A,,Overcast,10,2012-04-28 19:15:00
2:35 PM,52.9,45.7,77,30.00,7.0,NNE,9.2,-,N/A,,Overcast,20,2012-04-28 19:35:00
2:55 PM,53.6,45.9,75,30.01,7.0,NE,9.2,-,N/A,,Overcast,40,2012-04-28 19:55:00
3:15 PM,53.2,46.0,77,30.02,5.0,NNE,6.9,-,N/A,,Haze,30,2012-04-28 20:15:00
3:35 PM,53.4,46.0,76,30.01,5.0,ENE,6.9,-,N/A,,Haze,60,2012-04-28 20:35:00
3:55 PM,53.4,45.9,76,30.01,7.0,NE,9.2,-,N/A,,Overcast,50,2012-04-28 20:55:00
4:15 PM,53.2,46.4,78,30.02,7.0,NE,8.1,-,N/A,,Overcast,50,2012-04-28 21:15:00
4:35 PM,53.6,46.2,76,30.03,5.0,ENE,11.5,-,N/A,,Haze,60,2012-04-28 21:35:00
4:55 PM,53.2,46.2,77,30.03,5.0,East,11.5,-,N/A,,Haze,80,2012-04-28 21:55:00
5:15 PM,52.9,46.6,79,30.03,7.0,ENE,10.4,16.1,N/A,,Overcast,70,2012-04-28 22:15:00
5:35 PM,52.7,46.2,79,30.04,7.0,ENE,9.2,-,N/A,,Overcast,70,2012-04-28 22:35:00
5:55 PM,52.7,46.4,79,30.04,7.0,East,11.5,-,N/A,,Overcast,80,2012-04-28 22:55:00
6:15 PM,52.5,46.4,80,30.05,7.0,East,8.1,-,N/A,,Overcast,80,2012-04-28 23:15:00
6:35 PM,52.3,46.2,80,30.05,7.0,East,11.5,-,N/A,,Overcast,80,2012-04-28 23:35:00
6:55 PM,52.2,46.4,81,30.05,7.0,East,8.1,-,N/A,,Overcast,80,2012-04-28 23:55:00
7:15 PM,52.0,46.2,81,30.06,7.0,East,10.4,-,N/A,,Overcast,90,2012-04-29 00:15:00
7:35 PM,51.8,45.7,80,30.06,7.0,East,9.2,-,N/A,,Overcast,90,2012-04-29 00:35:00
7:55 PM,51.4,45.7,81,30.06,7.0,East,12.7,-,N/A,,Overcast,90,2012-04-29 00:55:00
8:15 PM,51.3,45.5,81,30.08,7.0,East,6.9,-,N/A,,Overcast,90,2012-04-29 01:15:00
8:35 PM,51.3,45.5,81,30.08,7.0,East,8.1,-,N/A,,Overcast,100,2012-04-29 01:35:00
8:55 PM,51.3,45.1,80,30.09,7.0,East,8.1,-,N/A,,Overcast,90,2012-04-29 01:55:00
9:15 PM,51.1,45.5,81,30.10,7.0,East,10.4,-,N/A,,Overcast,90,2012-04-29 02:15:00
9:35 PM,51.1,45.7,82,30.11,7.0,East,10.4,-,N/A,,Overcast,100,2012-04-29 02:35:00
9:55 PM,51.1,45.5,81,30.11,7.0,East,6.9,-,N/A,,Overcast,90,2012-04-29 02:55:00
10:15 PM,51.3,45.7,81,30.12,7.0,East,3.5,-,N/A,,Overcast,90,2012-04-29 03:15:00
10:35 PM,51.1,45.7,82,30.12,7.0,ENE,4.6,-,N/A,,Overcast,70,2012-04-29 03:35:00
10:55 PM,50.9,45.9,83,30.13,5.0,ENE,5.8,-,N/A,,Haze,70,2012-04-29 03:55:00
11:15 PM,50.5,46.4,86,30.13,4.0,East,6.9,-,N/A,,Haze,80,2012-04-29 04:15:00
11:35 PM,50.2,46.4,87,30.13,3.0,ENE,6.9,-,N/A,,Overcast,70,2012-04-29 04:35:00
11:55 PM,50.0,46.6,88,30.14,2.5,ENE,6.9,-,N/A,,Overcast,70,2012-04-29 04:55:00